Weather Roundup
Issued by NWS

Home | Current Version | Previous Version | Text Only | Print | Product List | Glossary On
Versions: 1 2 3 4 5 6 7 8 9 10 11 12 13 14 15 16 17 18 19 20 21 22 23 24 25 26 27 28 29 30 31 32 33 34 35 36 37 38 39 40 41 42 43 44 45 46 47 48 49 50
000
NZUS93 KARX 221210
HRRWXR

CURRENT HOURLY OBSERVATIONS ACROSS
MUCH OF THE UPPER MISSISSIPPI VALLEY
NATIONAL WEATHER SERVICE LA CROSSE WI
600 AM CST WED NOV 22 2017


...SOUTHEAST MINNESOTA...


CITY           SKY/WX    TMP DP  RH WIND       PRES   REMARKS
ROCHESTER      CLOUDY    12  10  92 W5        30.30F WCI   4
ROCHESTER/MAYO FAIR      16  12  84 CALM      30.31F
WINONA         CLOUDY    18  10  73 CALM      30.35F
AUSTIN         CLOUDY    12  10  92 CALM      30.31F
ALBERT LEA     CLOUDY    12   9  85 CALM      30.31S
DODGE CENTER   CLOUDY    10   7  85 CALM      30.29F
PRESTON          N/A     12   9  86 CALM      30.31S
OWATONNA       CLOUDY     9   7  92 CALM      30.31F
FARIBAULT      CLOUDY    12   9  85 CALM      30.33R
$$

...ELSEWHERE IN MINNESOTA...


CITY           SKY/WX    TMP DP  RH WIND       PRES   REMARKS
MINNEAPOLIS    CLOUDY    16  11  80 SW5       30.33S WCI   9
INTNL FALLS      N/A      3  -2  79 SW3       30.18S
DULUTH         CLOUDY     8   6  92 W5        30.22S WCI   0
RED WING       CLOUDY    12   9  85 N3        30.33S
REDWOOD FALLS  CLOUDY    10   5  80 SW6       30.31F WCI   0
MANKATO        CLOUDY    12   9  87 SW3       30.33F
WORTHINGTON    CLOUDY    11   6  81 S7        30.29F WCI   0
FAIRMONT       CLOUDY    11   8  88 SW3       30.33F
$$

...SOUTHWEST WISCONSIN...


CITY           SKY/WX    TMP DP  RH WIND       PRES   REMARKS
LA CROSSE      CLOUDY    16   9  74 N8        30.35S WCI   5
PRAIRIE DU CHI CLOUDY    17  10  76 CALM      30.36R
BOSCOBEL       CLOUDY    15  10  80 CALM      30.36F
LONE ROCK      CLOUDY    12  10  92 CALM      30.34S
PLATTEVILLE    CLOUDY    17  14  89 CALM      30.32F
FORT MC COY    PTCLDY    10   9  92 S3        30.33F
CAMP DOUGLAS   CLEAR     10   7  85 SW3       30.31F
MAUSTON-NEW LI CLOUDY    13  10  85 W5        30.32S WCI   5
VIROQUA        FAIR      15  13  91 CALM      30.30R
WIS DELLS      CLOUDY    15  10  80 CALM      30.31S
$$

...ELSEWHERE IN WISCONSIN...


CITY           SKY/WX    TMP DP  RH WIND       PRES   REMARKS
MILWAUKEE      PTCLDY    21  13  71 NW7       30.31S WCI  12
MADISON        CLOUDY    18  11  74 CALM      30.32R
GREEN BAY      CLOUDY    24  16  71 NW3       30.29S
EAU CLAIRE     CLOUDY    10   6  84 CALM      30.31F
BLACK RVR FLS  FAIR       5   2  86 CALM      30.32F
MEDFORD        CLOUDY    15   8  73 CALM      30.24F
WAUSAU         CLOUDY    16   9  74 W5        30.25S WCI   9
WIS RAPIDS     CLOUDY    13   9  84 W3        30.30F
MARSHFIELD     CLOUDY    16   8  71 CALM      30.25F
RICE LAKE      CLOUDY    11   9  89 SW3       30.31S
$$

...NORTHEAST IOWA...


CITY           SKY/WX    TMP DP  RH WIND       PRES   REMARKS
WATERLOO       CLOUDY    15  10  80 W6        30.37S WCI   6
DUBUQUE        CLOUDY    15  11  83 S5        30.32F WCI   8
DECORAH        CLOUDY    16  12  86 NW3       30.32R
MASON CITY     CLOUDY    12   7  80 W3        30.34F
CHARLES CITY     N/A     14  12  92 W5        30.34S WCI   6
OELWEIN        CLEAR     12  12 100 W7        30.34S WCI   2
$$

...ELSEWHERE IN IOWA...


CITY           SKY/WX    TMP DP  RH WIND       PRES   REMARKS
DES MOINES     CLOUDY    17  10  74 NW3       30.39F
IOWA CITY      PTCLDY    19  13  77 NW5       30.40S WCI  12
FORT DODGE     CLOUDY    13   9  84 CALM      30.36F
MARSHALLTOWN   PTCLDY    13  10  88 W3        30.36F
CEDAR RAPIDS   CLOUDY    15  11  83 W3        30.35F
$$

...NORTHERN ILLINOIS...


CITY           SKY/WX    TMP DP  RH WIND       PRES   REMARKS
CHICAGO-OHARE  PTCLDY    23  15  71 NW8       30.32R WCI  14
CHICAGO-MIDWAY PTCLDY    24  15  68 NW9       30.32R WCI  14
MOLINE         PTCLDY    19  12  74 W3        30.38S
ROCKFORD       CLOUDY    19  13  77 NW6       30.36R WCI  11
PEORIA         CLOUDY    20  15  81 NW3       30.37S
$$

NOTE: "FAIR" INDICATES FEW OR NO CLOUDS BELOW 12,000 FEET WITH NO
SIGNIFICANT WEATHER AND/OR OBSTRUCTIONS TO VISIBILITY. WIND
SPEEDS ARE IN MILES-PER-HOUR.




USA.gov is the U.S. government's official web portal to all federal, state and local government web resources and services.